Index of /20260506/WXO-DD/model_caps/3km/00/002
Name Last modified Size Description
Parent Directory -
20260506T00Z_MSC_CAPS_AbsoluteVorticity_IsbL-0250_RLatLon0.03_PT002H.grib2 2026-05-06 06:05 1.3M
20260506T00Z_MSC_CAPS_AbsoluteVorticity_IsbL-0500_RLatLon0.03_PT002H.grib2 2026-05-06 06:05 1.1M
20260506T00Z_MSC_CAPS_AbsoluteVorticity_IsbL-0700_RLatLon0.03_PT002H.grib2 2026-05-06 06:05 1.0M
20260506T00Z_MSC_CAPS_AbsoluteVorticity_IsbL-0850_RLatLon0.03_PT002H.grib2 2026-05-06 06:05 1.2M
20260506T00Z_MSC_CAPS_AbsoluteVorticity_IsbL-1000_RLatLon0.03_PT002H.grib2 2026-05-06 06:05 1.4M
20260506T00Z_MSC_CAPS_AirDensity_AGL-120m_RLatLon0.03_PT002H.grib2 2026-05-06 06:05 1.4M
20260506T00Z_MSC_CAPS_AirDensity_AGL-40m_RLatLon0.03_PT002H.grib2 2026-05-06 06:05 1.4M
20260506T00Z_MSC_CAPS_AirDensity_AGL-80m_RLatLon0.03_PT002H.grib2 2026-05-06 06:05 1.4M
20260506T00Z_MSC_CAPS_AirTemp_AGL-120m_RLatLon0.03_PT002H.grib2 2026-05-06 06:05 1.4M
20260506T00Z_MSC_CAPS_AirTemp_AGL-2m_RLatLon0.03_PT002H.grib2 2026-05-06 06:05 1.8M
20260506T00Z_MSC_CAPS_AirTemp_AGL-40m_RLatLon0.03_PT002H.grib2 2026-05-06 06:05 1.5M
20260506T00Z_MSC_CAPS_AirTemp_AGL-80m_RLatLon0.03_PT002H.grib2 2026-05-06 06:05 1.4M
20260506T00Z_MSC_CAPS_AirTemp_IsbL-0050_RLatLon0.03_PT002H.grib2 2026-05-06 06:05 705K
20260506T00Z_MSC_CAPS_AirTemp_IsbL-0100_RLatLon0.03_PT002H.grib2 2026-05-06 06:05 944K
20260506T00Z_MSC_CAPS_AirTemp_IsbL-0150_RLatLon0.03_PT002H.grib2 2026-05-06 06:05 743K
20260506T00Z_MSC_CAPS_AirTemp_IsbL-0175_RLatLon0.03_PT002H.grib2 2026-05-06 06:05 768K
20260506T00Z_MSC_CAPS_AirTemp_IsbL-0200_RLatLon0.03_PT002H.grib2 2026-05-06 06:05 789K
20260506T00Z_MSC_CAPS_AirTemp_IsbL-0225_RLatLon0.03_PT002H.grib2 2026-05-06 06:05 788K
20260506T00Z_MSC_CAPS_AirTemp_IsbL-0250_RLatLon0.03_PT002H.grib2 2026-05-06 06:05 1.0M
20260506T00Z_MSC_CAPS_AirTemp_IsbL-0275_RLatLon0.03_PT002H.grib2 2026-05-06 06:05 1.0M
20260506T00Z_MSC_CAPS_AirTemp_IsbL-0300_RLatLon0.03_PT002H.grib2 2026-05-06 06:05 1.0M
20260506T00Z_MSC_CAPS_AirTemp_IsbL-0350_RLatLon0.03_PT002H.grib2 2026-05-06 06:05 760K
20260506T00Z_MSC_CAPS_AirTemp_IsbL-0400_RLatLon0.03_PT002H.grib2 2026-05-06 06:05 765K
20260506T00Z_MSC_CAPS_AirTemp_IsbL-0450_RLatLon0.03_PT002H.grib2 2026-05-06 06:05 774K
20260506T00Z_MSC_CAPS_AirTemp_IsbL-0500_RLatLon0.03_PT002H.grib2 2026-05-06 06:05 786K
20260506T00Z_MSC_CAPS_AirTemp_IsbL-0550_RLatLon0.03_PT002H.grib2 2026-05-06 06:05 798K
20260506T00Z_MSC_CAPS_AirTemp_IsbL-0600_RLatLon0.03_PT002H.grib2 2026-05-06 06:05 814K
20260506T00Z_MSC_CAPS_AirTemp_IsbL-0650_RLatLon0.03_PT002H.grib2 2026-05-06 06:05 839K
20260506T00Z_MSC_CAPS_AirTemp_IsbL-0700_RLatLon0.03_PT002H.grib2 2026-05-06 06:05 1.0M
20260506T00Z_MSC_CAPS_AirTemp_IsbL-0750_RLatLon0.03_PT002H.grib2 2026-05-06 06:05 963K
20260506T00Z_MSC_CAPS_AirTemp_IsbL-0800_RLatLon0.03_PT002H.grib2 2026-05-06 06:05 1.0M
20260506T00Z_MSC_CAPS_AirTemp_IsbL-0850_RLatLon0.03_PT002H.grib2 2026-05-06 06:05 1.0M
20260506T00Z_MSC_CAPS_AirTemp_IsbL-0875_RLatLon0.03_PT002H.grib2 2026-05-06 06:05 1.0M
20260506T00Z_MSC_CAPS_AirTemp_IsbL-0900_RLatLon0.03_PT002H.grib2 2026-05-06 06:05 1.0M
20260506T00Z_MSC_CAPS_AirTemp_IsbL-0925_RLatLon0.03_PT002H.grib2 2026-05-06 06:05 1.0M
20260506T00Z_MSC_CAPS_AirTemp_IsbL-0950_RLatLon0.03_PT002H.grib2 2026-05-06 06:05 1.0M
20260506T00Z_MSC_CAPS_AirTemp_IsbL-0970_RLatLon0.03_PT002H.grib2 2026-05-06 06:05 1.0M
20260506T00Z_MSC_CAPS_AirTemp_IsbL-0985_RLatLon0.03_PT002H.grib2 2026-05-06 06:05 1.0M
20260506T00Z_MSC_CAPS_AirTemp_IsbL-1000_RLatLon0.03_PT002H.grib2 2026-05-06 06:05 1.0M
20260506T00Z_MSC_CAPS_AirTemp_IsbL-1015_RLatLon0.03_PT002H.grib2 2026-05-06 06:05 1.1M
20260506T00Z_MSC_CAPS_Albedo_Sfc_RLatLon0.03_PT002H.grib2 2026-05-06 06:05 2.7M
20260506T00Z_MSC_CAPS_CAPE_Sfc_RLatLon0.03_PT002H.grib2 2026-05-06 06:05 235K
20260506T00Z_MSC_CAPS_CloudWater_EAtm_RLatLon0.03_PT002H.grib2 2026-05-06 06:05 1.3M
20260506T00Z_MSC_CAPS_ConvectivePrecip-Accum_Sfc_RLatLon0.03_PT002H.grib2 2026-05-06 06:05 1.2M
20260506T00Z_MSC_CAPS_DewPointDepression_AGL-120m_RLatLon0.03_PT002H.grib2 2026-05-06 06:05 2.0M
20260506T00Z_MSC_CAPS_DewPointDepression_AGL-2m_RLatLon0.03_PT002H.grib2 2026-05-06 06:05 2.1M
20260506T00Z_MSC_CAPS_DewPointDepression_AGL-40m_RLatLon0.03_PT002H.grib2 2026-05-06 06:05 2.0M
20260506T00Z_MSC_CAPS_DewPointDepression_AGL-80m_RLatLon0.03_PT002H.grib2 2026-05-06 06:05 2.0M
20260506T00Z_MSC_CAPS_DewPointDepression_IsbL-0050_RLatLon0.03_PT002H.grib2 2026-05-06 06:05 2.9K
20260506T00Z_MSC_CAPS_DewPointDepression_IsbL-0100_RLatLon0.03_PT002H.grib2 2026-05-06 06:05 49K
20260506T00Z_MSC_CAPS_DewPointDepression_IsbL-0150_RLatLon0.03_PT002H.grib2 2026-05-06 06:05 64K
20260506T00Z_MSC_CAPS_DewPointDepression_IsbL-0175_RLatLon0.03_PT002H.grib2 2026-05-06 06:05 201K
20260506T00Z_MSC_CAPS_DewPointDepression_IsbL-0200_RLatLon0.03_PT002H.grib2 2026-05-06 06:05 372K
20260506T00Z_MSC_CAPS_DewPointDepression_IsbL-0225_RLatLon0.03_PT002H.grib2 2026-05-06 06:05 557K
20260506T00Z_MSC_CAPS_DewPointDepression_IsbL-0250_RLatLon0.03_PT002H.grib2 2026-05-06 06:05 793K
20260506T00Z_MSC_CAPS_DewPointDepression_IsbL-0275_RLatLon0.03_PT002H.grib2 2026-05-06 06:05 927K
20260506T00Z_MSC_CAPS_DewPointDepression_IsbL-0300_RLatLon0.03_PT002H.grib2 2026-05-06 06:05 1.0M
20260506T00Z_MSC_CAPS_DewPointDepression_IsbL-0350_RLatLon0.03_PT002H.grib2 2026-05-06 06:05 1.0M
20260506T00Z_MSC_CAPS_DewPointDepression_IsbL-0400_RLatLon0.03_PT002H.grib2 2026-05-06 06:05 1.0M
20260506T00Z_MSC_CAPS_DewPointDepression_IsbL-0450_RLatLon0.03_PT002H.grib2 2026-05-06 06:05 1.1M
20260506T00Z_MSC_CAPS_DewPointDepression_IsbL-0500_RLatLon0.03_PT002H.grib2 2026-05-06 06:05 1.1M
20260506T00Z_MSC_CAPS_DewPointDepression_IsbL-0550_RLatLon0.03_PT002H.grib2 2026-05-06 06:05 1.1M
20260506T00Z_MSC_CAPS_DewPointDepression_IsbL-0600_RLatLon0.03_PT002H.grib2 2026-05-06 06:05 1.1M
20260506T00Z_MSC_CAPS_DewPointDepression_IsbL-0650_RLatLon0.03_PT002H.grib2 2026-05-06 06:05 1.1M
20260506T00Z_MSC_CAPS_DewPointDepression_IsbL-0700_RLatLon0.03_PT002H.grib2 2026-05-06 06:05 1.2M
20260506T00Z_MSC_CAPS_DewPointDepression_IsbL-0750_RLatLon0.03_PT002H.grib2 2026-05-06 06:05 1.2M
20260506T00Z_MSC_CAPS_DewPointDepression_IsbL-0800_RLatLon0.03_PT002H.grib2 2026-05-06 06:05 1.2M
20260506T00Z_MSC_CAPS_DewPointDepression_IsbL-0850_RLatLon0.03_PT002H.grib2 2026-05-06 06:05 1.3M
20260506T00Z_MSC_CAPS_DewPointDepression_IsbL-0875_RLatLon0.03_PT002H.grib2 2026-05-06 06:05 1.3M
20260506T00Z_MSC_CAPS_DewPointDepression_IsbL-0900_RLatLon0.03_PT002H.grib2 2026-05-06 06:05 1.3M
20260506T00Z_MSC_CAPS_DewPointDepression_IsbL-0925_RLatLon0.03_PT002H.grib2 2026-05-06 06:05 1.3M
20260506T00Z_MSC_CAPS_DewPointDepression_IsbL-0950_RLatLon0.03_PT002H.grib2 2026-05-06 06:05 1.3M
20260506T00Z_MSC_CAPS_DewPointDepression_IsbL-0970_RLatLon0.03_PT002H.grib2 2026-05-06 06:05 1.3M
20260506T00Z_MSC_CAPS_DewPointDepression_IsbL-0985_RLatLon0.03_PT002H.grib2 2026-05-06 06:05 1.3M
20260506T00Z_MSC_CAPS_DewPointDepression_IsbL-1000_RLatLon0.03_PT002H.grib2 2026-05-06 06:05 1.3M
20260506T00Z_MSC_CAPS_DewPointDepression_IsbL-1015_RLatLon0.03_PT002H.grib2 2026-05-06 06:05 1.3M
20260506T00Z_MSC_CAPS_DewPoint_AGL-120m_RLatLon0.03_PT002H.grib2 2026-05-06 06:05 3.5M
20260506T00Z_MSC_CAPS_DewPoint_AGL-2m_RLatLon0.03_PT002H.grib2 2026-05-06 06:05 1.7M
20260506T00Z_MSC_CAPS_DewPoint_AGL-40m_RLatLon0.03_PT002H.grib2 2026-05-06 06:05 3.6M
20260506T00Z_MSC_CAPS_DewPoint_AGL-80m_RLatLon0.03_PT002H.grib2 2026-05-06 06:05 3.5M
20260506T00Z_MSC_CAPS_DownwardLongwaveRadiationFlux-Accum_Sfc_RLatLon0.03_PT002H.grib2 2026-05-06 06:05 2.3M
20260506T00Z_MSC_CAPS_DownwardShortwaveRadiationFlux-Accum_NTAtm_RLatLon0.03_PT002H.grib2 2026-05-06 06:05 350K
20260506T00Z_MSC_CAPS_DownwardShortwaveRadiationFlux-Accum_Sfc_RLatLon0.03_PT002H.grib2 2026-05-06 06:05 1.7M
20260506T00Z_MSC_CAPS_FreezingRain-Accum_Sfc_RLatLon0.03_PT002H.grib2 2026-05-06 06:05 163K
20260506T00Z_MSC_CAPS_GeopotentialHeight_IsbL-0050_RLatLon0.03_PT002H.grib2 2026-05-06 06:05 640K
20260506T00Z_MSC_CAPS_GeopotentialHeight_IsbL-0100_RLatLon0.03_PT002H.grib2 2026-05-06 06:05 816K
20260506T00Z_MSC_CAPS_GeopotentialHeight_IsbL-0150_RLatLon0.03_PT002H.grib2 2026-05-06 06:05 604K
20260506T00Z_MSC_CAPS_GeopotentialHeight_IsbL-0175_RLatLon0.03_PT002H.grib2 2026-05-06 06:05 715K
20260506T00Z_MSC_CAPS_GeopotentialHeight_IsbL-0200_RLatLon0.03_PT002H.grib2 2026-05-06 06:05 738K
20260506T00Z_MSC_CAPS_GeopotentialHeight_IsbL-0225_RLatLon0.03_PT002H.grib2 2026-05-06 06:05 761K
20260506T00Z_MSC_CAPS_GeopotentialHeight_IsbL-0250_RLatLon0.03_PT002H.grib2 2026-05-06 06:05 772K
20260506T00Z_MSC_CAPS_GeopotentialHeight_IsbL-0275_RLatLon0.03_PT002H.grib2 2026-05-06 06:05 781K
20260506T00Z_MSC_CAPS_GeopotentialHeight_IsbL-0300_RLatLon0.03_PT002H.grib2 2026-05-06 06:05 787K
20260506T00Z_MSC_CAPS_GeopotentialHeight_IsbL-0350_RLatLon0.03_PT002H.grib2 2026-05-06 06:05 788K
20260506T00Z_MSC_CAPS_GeopotentialHeight_IsbL-0400_RLatLon0.03_PT002H.grib2 2026-05-06 06:05 781K
20260506T00Z_MSC_CAPS_GeopotentialHeight_IsbL-0450_RLatLon0.03_PT002H.grib2 2026-05-06 06:05 772K
20260506T00Z_MSC_CAPS_GeopotentialHeight_IsbL-0500_RLatLon0.03_PT002H.grib2 2026-05-06 06:05 764K
20260506T00Z_MSC_CAPS_GeopotentialHeight_IsbL-0550_RLatLon0.03_PT002H.grib2 2026-05-06 06:05 645K
20260506T00Z_MSC_CAPS_GeopotentialHeight_IsbL-0600_RLatLon0.03_PT002H.grib2 2026-05-06 06:05 638K
20260506T00Z_MSC_CAPS_GeopotentialHeight_IsbL-0650_RLatLon0.03_PT002H.grib2 2026-05-06 06:05 810K
20260506T00Z_MSC_CAPS_GeopotentialHeight_IsbL-0700_RLatLon0.03_PT002H.grib2 2026-05-06 06:05 811K
20260506T00Z_MSC_CAPS_GeopotentialHeight_IsbL-0750_RLatLon0.03_PT002H.grib2 2026-05-06 06:05 815K
20260506T00Z_MSC_CAPS_GeopotentialHeight_IsbL-0800_RLatLon0.03_PT002H.grib2 2026-05-06 06:05 822K
20260506T00Z_MSC_CAPS_GeopotentialHeight_IsbL-0850_RLatLon0.03_PT002H.grib2 2026-05-06 06:05 832K
20260506T00Z_MSC_CAPS_GeopotentialHeight_IsbL-0875_RLatLon0.03_PT002H.grib2 2026-05-06 06:05 838K
20260506T00Z_MSC_CAPS_GeopotentialHeight_IsbL-0900_RLatLon0.03_PT002H.grib2 2026-05-06 06:05 847K
20260506T00Z_MSC_CAPS_GeopotentialHeight_IsbL-0925_RLatLon0.03_PT002H.grib2 2026-05-06 06:05 667K
20260506T00Z_MSC_CAPS_GeopotentialHeight_IsbL-0950_RLatLon0.03_PT002H.grib2 2026-05-06 06:05 673K
20260506T00Z_MSC_CAPS_GeopotentialHeight_IsbL-0970_RLatLon0.03_PT002H.grib2 2026-05-06 06:05 681K
20260506T00Z_MSC_CAPS_GeopotentialHeight_IsbL-0985_RLatLon0.03_PT002H.grib2 2026-05-06 06:05 686K
20260506T00Z_MSC_CAPS_GeopotentialHeight_IsbL-1000_RLatLon0.03_PT002H.grib2 2026-05-06 06:05 692K
20260506T00Z_MSC_CAPS_GeopotentialHeight_IsbL-1015_RLatLon0.03_PT002H.grib2 2026-05-06 06:05 700K
20260506T00Z_MSC_CAPS_GeopotentialHeight_Sfc_RLatLon0.03_PT002H.grib2 2026-05-06 06:05 1.0M
20260506T00Z_MSC_CAPS_IcePellets-Accum_Sfc_RLatLon0.03_PT002H.grib2 2026-05-06 06:05 28K
20260506T00Z_MSC_CAPS_LatentHeatNetFlux_Sfc_RLatLon0.03_PT002H.grib2 2026-05-06 06:05 1.9M
20260506T00Z_MSC_CAPS_LiftedIndex-MU-VT_IsbL-0500_RLatLon0.03_PT002H.grib2 2026-05-06 06:05 3.3M
20260506T00Z_MSC_CAPS_MixedLayerThickness_Sfc_RLatLon0.03_PT002H.nc 2026-05-06 06:11 16M
20260506T00Z_MSC_CAPS_NetLongwaveRadiationFlux-Accum_Sfc_RLatLon0.03_PT002H.grib2 2026-05-06 06:05 2.7M
20260506T00Z_MSC_CAPS_NetShortwaveRadiationFlux-Accum_Sfc_RLatLon0.03_PT002H.grib2 2026-05-06 06:05 1.9M
20260506T00Z_MSC_CAPS_PlanetaryBoundaryLayerHeight_Sfc_RLatLon0.03_PT002H.grib2 2026-05-06 06:05 2.9M
20260506T00Z_MSC_CAPS_Precip-Accum_Sfc_RLatLon0.03_PT002H.grib2 2026-05-06 06:05 2.5M
20260506T00Z_MSC_CAPS_PrecipRate_Sfc_RLatLon0.03_PT002H.grib2 2026-05-06 06:05 244K
20260506T00Z_MSC_CAPS_PrecipType-Instant_Sfc_RLatLon0.03_PT002H.grib2 2026-05-06 06:05 1.3M
20260506T00Z_MSC_CAPS_Pressure_MSL_RLatLon0.03_PT002H.grib2 2026-05-06 06:05 923K
20260506T00Z_MSC_CAPS_Pressure_Sfc_RLatLon0.03_PT002H.grib2 2026-05-06 06:05 1.2M
20260506T00Z_MSC_CAPS_RadiativeTemp_Sfc_RLatLon0.03_PT002H.grib2 2026-05-06 06:05 2.1M
20260506T00Z_MSC_CAPS_Rain-Accum_Sfc_RLatLon0.03_PT002H.grib2 2026-05-06 06:05 1.1M
20260506T00Z_MSC_CAPS_RelativeHumidity_AGL-120m_RLatLon0.03_PT002H.grib2 2026-05-06 06:05 2.7M
20260506T00Z_MSC_CAPS_RelativeHumidity_AGL-2m_RLatLon0.03_PT002H.grib2 2026-05-06 06:05 2.9M
20260506T00Z_MSC_CAPS_RelativeHumidity_AGL-40m_RLatLon0.03_PT002H.grib2 2026-05-06 06:05 2.8M
20260506T00Z_MSC_CAPS_RelativeHumidity_AGL-80m_RLatLon0.03_PT002H.grib2 2026-05-06 06:05 2.7M
20260506T00Z_MSC_CAPS_RelativeHumidity_IsbL-0050_RLatLon0.03_PT002H.grib2 2026-05-06 06:05 954K
20260506T00Z_MSC_CAPS_RelativeHumidity_IsbL-0100_RLatLon0.03_PT002H.grib2 2026-05-06 06:05 832K
20260506T00Z_MSC_CAPS_RelativeHumidity_IsbL-0150_RLatLon0.03_PT002H.grib2 2026-05-06 06:05 568K
20260506T00Z_MSC_CAPS_RelativeHumidity_IsbL-0175_RLatLon0.03_PT002H.grib2 2026-05-06 06:05 456K
20260506T00Z_MSC_CAPS_RelativeHumidity_IsbL-0200_RLatLon0.03_PT002H.grib2 2026-05-06 06:05 625K
20260506T00Z_MSC_CAPS_RelativeHumidity_IsbL-0225_RLatLon0.03_PT002H.grib2 2026-05-06 06:05 849K
20260506T00Z_MSC_CAPS_RelativeHumidity_IsbL-0250_RLatLon0.03_PT002H.grib2 2026-05-06 06:05 1.0M
20260506T00Z_MSC_CAPS_RelativeHumidity_IsbL-0275_RLatLon0.03_PT002H.grib2 2026-05-06 06:05 1.3M
20260506T00Z_MSC_CAPS_RelativeHumidity_IsbL-0300_RLatLon0.03_PT002H.grib2 2026-05-06 06:05 1.4M
20260506T00Z_MSC_CAPS_RelativeHumidity_IsbL-0350_RLatLon0.03_PT002H.grib2 2026-05-06 06:05 1.8M
20260506T00Z_MSC_CAPS_RelativeHumidity_IsbL-0400_RLatLon0.03_PT002H.grib2 2026-05-06 06:05 1.8M
20260506T00Z_MSC_CAPS_RelativeHumidity_IsbL-0450_RLatLon0.03_PT002H.grib2 2026-05-06 06:05 1.9M
20260506T00Z_MSC_CAPS_RelativeHumidity_IsbL-0500_RLatLon0.03_PT002H.grib2 2026-05-06 06:05 1.8M
20260506T00Z_MSC_CAPS_RelativeHumidity_IsbL-0550_RLatLon0.03_PT002H.grib2 2026-05-06 06:05 1.9M
20260506T00Z_MSC_CAPS_RelativeHumidity_IsbL-0600_RLatLon0.03_PT002H.grib2 2026-05-06 06:05 1.9M
20260506T00Z_MSC_CAPS_RelativeHumidity_IsbL-0650_RLatLon0.03_PT002H.grib2 2026-05-06 06:05 2.1M
20260506T00Z_MSC_CAPS_RelativeHumidity_IsbL-0700_RLatLon0.03_PT002H.grib2 2026-05-06 06:05 2.1M
20260506T00Z_MSC_CAPS_RelativeHumidity_IsbL-0750_RLatLon0.03_PT002H.grib2 2026-05-06 06:05 2.2M
20260506T00Z_MSC_CAPS_RelativeHumidity_IsbL-0800_RLatLon0.03_PT002H.grib2 2026-05-06 06:05 2.4M
20260506T00Z_MSC_CAPS_RelativeHumidity_IsbL-0850_RLatLon0.03_PT002H.grib2 2026-05-06 06:05 2.5M
20260506T00Z_MSC_CAPS_RelativeHumidity_IsbL-0875_RLatLon0.03_PT002H.grib2 2026-05-06 06:05 2.5M
20260506T00Z_MSC_CAPS_RelativeHumidity_IsbL-0900_RLatLon0.03_PT002H.grib2 2026-05-06 06:05 2.5M
20260506T00Z_MSC_CAPS_RelativeHumidity_IsbL-0925_RLatLon0.03_PT002H.grib2 2026-05-06 06:05 2.6M
20260506T00Z_MSC_CAPS_RelativeHumidity_IsbL-0950_RLatLon0.03_PT002H.grib2 2026-05-06 06:05 2.7M
20260506T00Z_MSC_CAPS_RelativeHumidity_IsbL-0970_RLatLon0.03_PT002H.grib2 2026-05-06 06:05 2.7M
20260506T00Z_MSC_CAPS_RelativeHumidity_IsbL-0985_RLatLon0.03_PT002H.grib2 2026-05-06 06:05 2.8M
20260506T00Z_MSC_CAPS_RelativeHumidity_IsbL-1000_RLatLon0.03_PT002H.grib2 2026-05-06 06:05 2.8M
20260506T00Z_MSC_CAPS_RelativeHumidity_IsbL-1015_RLatLon0.03_PT002H.grib2 2026-05-06 06:05 2.8M
20260506T00Z_MSC_CAPS_Runoff-Accum_Sfc_RLatLon0.03_PT002H.grib2 2026-05-06 06:05 255K
20260506T00Z_MSC_CAPS_SeaIceAreaFraction_Sfc_RLatLon0.03_PT002H.nc 2026-05-06 06:11 15M
20260506T00Z_MSC_CAPS_SeaIceCompressiveStrength_Sfc_RLatLon0.03_PT002H.nc 2026-05-06 06:11 15M
20260506T00Z_MSC_CAPS_SeaIceDivergence_Sfc_RLatLon0.03_PT002H.nc 2026-05-06 06:11 15M
20260506T00Z_MSC_CAPS_SeaIceInternalPressure_Sfc_RLatLon0.03_PT002H.nc 2026-05-06 06:11 15M
20260506T00Z_MSC_CAPS_SeaIceShear_Sfc_RLatLon0.03_PT002H.nc 2026-05-06 06:11 14M
20260506T00Z_MSC_CAPS_SeaIceSnowTemp_Sfc_RLatLon0.03_PT002H.nc 2026-05-06 06:11 14M
20260506T00Z_MSC_CAPS_SeaIceSnowVolume_Sfc_RLatLon0.03_PT002H.nc 2026-05-06 06:11 15M
20260506T00Z_MSC_CAPS_SeaIceVelocityX_Sfc_RLatLon0.03_PT002H.nc 2026-05-06 06:11 15M
20260506T00Z_MSC_CAPS_SeaIceVelocityY_Sfc_RLatLon0.03_PT002H.nc 2026-05-06 06:11 15M
20260506T00Z_MSC_CAPS_SeaIceVolume_Sfc_RLatLon0.03_PT002H.nc 2026-05-06 06:11 15M
20260506T00Z_MSC_CAPS_SeaSurfaceHeight_Sfc_RLatLon0.03_PT002H.nc 2026-05-06 06:11 16M
20260506T00Z_MSC_CAPS_SeaWaterSalinity_DBS-0.5m_RLatLon0.03_PT002H.nc 2026-05-06 06:11 16M
20260506T00Z_MSC_CAPS_SeaWaterSalinity_DBS-all_RLatLon0.03_PT002H.nc 2026-05-06 06:11 107M
20260506T00Z_MSC_CAPS_SeaWaterTemp_DBS-0.5m_RLatLon0.03_PT002H.nc 2026-05-06 06:11 15M
20260506T00Z_MSC_CAPS_SeaWaterTemp_DBS-all_RLatLon0.03_PT002H.nc 2026-05-06 06:11 88M
20260506T00Z_MSC_CAPS_SeaWaterVelocityX_DBS-0.5m_RLatLon0.03_PT002H.nc 2026-05-06 06:11 17M
20260506T00Z_MSC_CAPS_SeaWaterVelocityX_DBS-all_RLatLon0.03_PT002H.nc 2026-05-06 06:11 210M
20260506T00Z_MSC_CAPS_SeaWaterVelocityY_DBS-0.5m_RLatLon0.03_PT002H.nc 2026-05-06 06:11 18M
20260506T00Z_MSC_CAPS_SeaWaterVelocityY_DBS-all_RLatLon0.03_PT002H.nc 2026-05-06 06:11 214M
20260506T00Z_MSC_CAPS_SensibleHeatNetFlux_Sfc_RLatLon0.03_PT002H.grib2 2026-05-06 06:05 1.8M
20260506T00Z_MSC_CAPS_ShowalterIndex_IsbL-0500_RLatLon0.03_PT002H.grib2 2026-05-06 06:05 3.8M
20260506T00Z_MSC_CAPS_Snow-Accum_Sfc_RLatLon0.03_PT002H.grib2 2026-05-06 06:05 1.8M
20260506T00Z_MSC_CAPS_SnowDensity_Sfc_RLatLon0.03_PT002H.grib2 2026-05-06 06:05 1.1M
20260506T00Z_MSC_CAPS_SnowDepthWaterEquivalent_Sfc_RLatLon0.03_PT002H.grib2 2026-05-06 06:05 645K
20260506T00Z_MSC_CAPS_SnowDepth_Sfc_RLatLon0.03_PT002H.grib2 2026-05-06 06:05 1.1M
20260506T00Z_MSC_CAPS_SoilTemp_DBS-0to10cm_RLatLon0.03_PT002H.grib2 2026-05-06 06:05 1.1M
20260506T00Z_MSC_CAPS_SoilTemp_Sfc_RLatLon0.03_PT002H.grib2 2026-05-06 06:05 1.8M
20260506T00Z_MSC_CAPS_SoilVolumetricIceContent_Sfc_RLatLon0.03_PT002H.grib2 2026-05-06 06:05 1.3M
20260506T00Z_MSC_CAPS_SoilVolumetricWaterContent_DBS-0to10cm_RLatLon0.03_PT002H.grib2 2026-05-06 06:05 1.2M
20260506T00Z_MSC_CAPS_SoilVolumetricWaterContent_DBS-0to1cm_RLatLon0.03_PT002H.grib2 2026-05-06 06:05 1.7M
20260506T00Z_MSC_CAPS_SpecificHumidity_AGL-120m_RLatLon0.03_PT002H.grib2 2026-05-06 06:05 1.7M
20260506T00Z_MSC_CAPS_SpecificHumidity_AGL-2m_RLatLon0.03_PT002H.grib2 2026-05-06 06:05 1.7M
20260506T00Z_MSC_CAPS_SpecificHumidity_AGL-40m_RLatLon0.03_PT002H.grib2 2026-05-06 06:05 1.4M
20260506T00Z_MSC_CAPS_SpecificHumidity_AGL-80m_RLatLon0.03_PT002H.grib2 2026-05-06 06:05 1.7M
20260506T00Z_MSC_CAPS_SpecificHumidity_IsbL-0050_RLatLon0.03_PT002H.grib2 2026-05-06 06:05 860K
20260506T00Z_MSC_CAPS_SpecificHumidity_IsbL-0100_RLatLon0.03_PT002H.grib2 2026-05-06 06:05 1.1M
20260506T00Z_MSC_CAPS_SpecificHumidity_IsbL-0150_RLatLon0.03_PT002H.grib2 2026-05-06 06:05 972K
20260506T00Z_MSC_CAPS_SpecificHumidity_IsbL-0175_RLatLon0.03_PT002H.grib2 2026-05-06 06:05 965K
20260506T00Z_MSC_CAPS_SpecificHumidity_IsbL-0200_RLatLon0.03_PT002H.grib2 2026-05-06 06:05 828K
20260506T00Z_MSC_CAPS_SpecificHumidity_IsbL-0225_RLatLon0.03_PT002H.grib2 2026-05-06 06:05 1.0M
20260506T00Z_MSC_CAPS_SpecificHumidity_IsbL-0250_RLatLon0.03_PT002H.grib2 2026-05-06 06:05 1.0M
20260506T00Z_MSC_CAPS_SpecificHumidity_IsbL-0275_RLatLon0.03_PT002H.grib2 2026-05-06 06:05 1.0M
20260506T00Z_MSC_CAPS_SpecificHumidity_IsbL-0300_RLatLon0.03_PT002H.grib2 2026-05-06 06:05 929K
20260506T00Z_MSC_CAPS_SpecificHumidity_IsbL-0350_RLatLon0.03_PT002H.grib2 2026-05-06 06:05 1.2M
20260506T00Z_MSC_CAPS_SpecificHumidity_IsbL-0400_RLatLon0.03_PT002H.grib2 2026-05-06 06:05 1.1M
20260506T00Z_MSC_CAPS_SpecificHumidity_IsbL-0450_RLatLon0.03_PT002H.grib2 2026-05-06 06:05 1.0M
20260506T00Z_MSC_CAPS_SpecificHumidity_IsbL-0500_RLatLon0.03_PT002H.grib2 2026-05-06 06:05 1.2M
20260506T00Z_MSC_CAPS_SpecificHumidity_IsbL-0550_RLatLon0.03_PT002H.grib2 2026-05-06 06:05 1.1M
20260506T00Z_MSC_CAPS_SpecificHumidity_IsbL-0600_RLatLon0.03_PT002H.grib2 2026-05-06 06:05 1.2M
20260506T00Z_MSC_CAPS_SpecificHumidity_IsbL-0650_RLatLon0.03_PT002H.grib2 2026-05-06 06:05 1.0M
20260506T00Z_MSC_CAPS_SpecificHumidity_IsbL-0700_RLatLon0.03_PT002H.grib2 2026-05-06 06:05 1.1M
20260506T00Z_MSC_CAPS_SpecificHumidity_IsbL-0750_RLatLon0.03_PT002H.grib2 2026-05-06 06:05 1.3M
20260506T00Z_MSC_CAPS_SpecificHumidity_IsbL-0800_RLatLon0.03_PT002H.grib2 2026-05-06 06:05 1.5M
20260506T00Z_MSC_CAPS_SpecificHumidity_IsbL-0850_RLatLon0.03_PT002H.grib2 2026-05-06 06:05 1.6M
20260506T00Z_MSC_CAPS_SpecificHumidity_IsbL-0875_RLatLon0.03_PT002H.grib2 2026-05-06 06:05 1.3M
20260506T00Z_MSC_CAPS_SpecificHumidity_IsbL-0900_RLatLon0.03_PT002H.grib2 2026-05-06 06:05 1.4M
20260506T00Z_MSC_CAPS_SpecificHumidity_IsbL-0925_RLatLon0.03_PT002H.grib2 2026-05-06 06:05 1.4M
20260506T00Z_MSC_CAPS_SpecificHumidity_IsbL-0950_RLatLon0.03_PT002H.grib2 2026-05-06 06:05 1.5M
20260506T00Z_MSC_CAPS_SpecificHumidity_IsbL-0970_RLatLon0.03_PT002H.grib2 2026-05-06 06:05 1.5M
20260506T00Z_MSC_CAPS_SpecificHumidity_IsbL-0985_RLatLon0.03_PT002H.grib2 2026-05-06 06:05 1.6M
20260506T00Z_MSC_CAPS_SpecificHumidity_IsbL-1000_RLatLon0.03_PT002H.grib2 2026-05-06 06:05 1.7M
20260506T00Z_MSC_CAPS_SpecificHumidity_IsbL-1015_RLatLon0.03_PT002H.grib2 2026-05-06 06:05 1.7M
20260506T00Z_MSC_CAPS_SpecificHumidity_Sfc_RLatLon0.03_PT002H.grib2 2026-05-06 06:05 2.1M
20260506T00Z_MSC_CAPS_StormRelativeHelicity_Sfc_RLatLon0.03_PT002H.grib2 2026-05-06 06:05 3.2M
20260506T00Z_MSC_CAPS_Thickness_IsbL-1000to0500_RLatLon0.03_PT002H.grib2 2026-05-06 06:05 476K
20260506T00Z_MSC_CAPS_TotalCloudCover_Sfc_RLatLon0.03_PT002H.grib2 2026-05-06 06:05 3.2M
20260506T00Z_MSC_CAPS_TurboclineDepth_Sfc_RLatLon0.03_PT002H.nc 2026-05-06 06:11 16M
20260506T00Z_MSC_CAPS_UpwardLongwaveRadiationFlux_NTAtm_RLatLon0.03_PT002H.grib2 2026-05-06 06:05 2.7M
20260506T00Z_MSC_CAPS_UpwardShortwaveRadiationFlux_NTAtm_RLatLon0.03_PT002H.grib2 2026-05-06 06:05 1.9M
20260506T00Z_MSC_CAPS_VerticalVelocity_IsbL-0250_RLatLon0.03_PT002H.grib2 2026-05-06 06:05 1.2M
20260506T00Z_MSC_CAPS_VerticalVelocity_IsbL-0500_RLatLon0.03_PT002H.grib2 2026-05-06 06:05 1.2M
20260506T00Z_MSC_CAPS_VerticalVelocity_IsbL-0700_RLatLon0.03_PT002H.grib2 2026-05-06 06:05 966K
20260506T00Z_MSC_CAPS_VerticalVelocity_IsbL-0850_RLatLon0.03_PT002H.grib2 2026-05-06 06:05 1.1M
20260506T00Z_MSC_CAPS_VerticalVelocity_IsbL-1000_RLatLon0.03_PT002H.grib2 2026-05-06 06:05 1.4M
20260506T00Z_MSC_CAPS_WindDir_AGL-10m_RLatLon0.03_PT002H.grib2 2026-05-06 06:05 2.3M
20260506T00Z_MSC_CAPS_WindDir_AGL-120m_RLatLon0.03_PT002H.grib2 2026-05-06 06:05 1.2M
20260506T00Z_MSC_CAPS_WindDir_AGL-40m_RLatLon0.03_PT002H.grib2 2026-05-06 06:05 1.3M
20260506T00Z_MSC_CAPS_WindDir_AGL-80m_RLatLon0.03_PT002H.grib2 2026-05-06 06:05 1.2M
20260506T00Z_MSC_CAPS_WindDir_IsbL-0050_RLatLon0.03_PT002H.grib2 2026-05-06 06:05 1.1M
20260506T00Z_MSC_CAPS_WindDir_IsbL-0100_RLatLon0.03_PT002H.grib2 2026-05-06 06:05 1.0M
20260506T00Z_MSC_CAPS_WindDir_IsbL-0150_RLatLon0.03_PT002H.grib2 2026-05-06 06:05 1.0M
20260506T00Z_MSC_CAPS_WindDir_IsbL-0175_RLatLon0.03_PT002H.grib2 2026-05-06 06:05 1.0M
20260506T00Z_MSC_CAPS_WindDir_IsbL-0200_RLatLon0.03_PT002H.grib2 2026-05-06 06:05 1.1M
20260506T00Z_MSC_CAPS_WindDir_IsbL-0225_RLatLon0.03_PT002H.grib2 2026-05-06 06:05 1.1M
20260506T00Z_MSC_CAPS_WindDir_IsbL-0250_RLatLon0.03_PT002H.grib2 2026-05-06 06:05 1.1M
20260506T00Z_MSC_CAPS_WindDir_IsbL-0275_RLatLon0.03_PT002H.grib2 2026-05-06 06:05 1.1M
20260506T00Z_MSC_CAPS_WindDir_IsbL-0300_RLatLon0.03_PT002H.grib2 2026-05-06 06:05 1.1M
20260506T00Z_MSC_CAPS_WindDir_IsbL-0350_RLatLon0.03_PT002H.grib2 2026-05-06 06:05 1.1M
20260506T00Z_MSC_CAPS_WindDir_IsbL-0400_RLatLon0.03_PT002H.grib2 2026-05-06 06:05 1.2M
20260506T00Z_MSC_CAPS_WindDir_IsbL-0450_RLatLon0.03_PT002H.grib2 2026-05-06 06:05 1.2M
20260506T00Z_MSC_CAPS_WindDir_IsbL-0500_RLatLon0.03_PT002H.grib2 2026-05-06 06:05 1.2M
20260506T00Z_MSC_CAPS_WindDir_IsbL-0550_RLatLon0.03_PT002H.grib2 2026-05-06 06:05 1.3M
20260506T00Z_MSC_CAPS_WindDir_IsbL-0600_RLatLon0.03_PT002H.grib2 2026-05-06 06:05 1.2M
20260506T00Z_MSC_CAPS_WindDir_IsbL-0650_RLatLon0.03_PT002H.grib2 2026-05-06 06:05 1.3M
20260506T00Z_MSC_CAPS_WindDir_IsbL-0700_RLatLon0.03_PT002H.grib2 2026-05-06 06:05 1.4M
20260506T00Z_MSC_CAPS_WindDir_IsbL-0750_RLatLon0.03_PT002H.grib2 2026-05-06 06:05 1.5M
20260506T00Z_MSC_CAPS_WindDir_IsbL-0800_RLatLon0.03_PT002H.grib2 2026-05-06 06:05 1.6M
20260506T00Z_MSC_CAPS_WindDir_IsbL-0850_RLatLon0.03_PT002H.grib2 2026-05-06 06:05 1.7M
20260506T00Z_MSC_CAPS_WindDir_IsbL-0875_RLatLon0.03_PT002H.grib2 2026-05-06 06:05 1.8M
20260506T00Z_MSC_CAPS_WindDir_IsbL-0900_RLatLon0.03_PT002H.grib2 2026-05-06 06:05 1.9M
20260506T00Z_MSC_CAPS_WindDir_IsbL-0925_RLatLon0.03_PT002H.grib2 2026-05-06 06:05 1.9M
20260506T00Z_MSC_CAPS_WindDir_IsbL-0950_RLatLon0.03_PT002H.grib2 2026-05-06 06:05 2.0M
20260506T00Z_MSC_CAPS_WindDir_IsbL-0970_RLatLon0.03_PT002H.grib2 2026-05-06 06:05 2.1M
20260506T00Z_MSC_CAPS_WindDir_IsbL-0985_RLatLon0.03_PT002H.grib2 2026-05-06 06:05 2.1M
20260506T00Z_MSC_CAPS_WindDir_IsbL-1000_RLatLon0.03_PT002H.grib2 2026-05-06 06:05 2.2M
20260506T00Z_MSC_CAPS_WindDir_IsbL-1015_RLatLon0.03_PT002H.grib2 2026-05-06 06:05 2.3M
20260506T00Z_MSC_CAPS_WindGust-Max_AGL-10m_RLatLon0.03_PT002H.grib2 2026-05-06 06:05 2.4M
20260506T00Z_MSC_CAPS_WindGust-Min_AGL-10m_RLatLon0.03_PT002H.grib2 2026-05-06 06:05 2.4M
20260506T00Z_MSC_CAPS_WindGust_AGL-10m_RLatLon0.03_PT002H.grib2 2026-05-06 06:05 2.5M
20260506T00Z_MSC_CAPS_WindSpeed_AGL-10m_RLatLon0.03_PT002H.grib2 2026-05-06 06:05 2.1M
20260506T00Z_MSC_CAPS_WindSpeed_AGL-120m_RLatLon0.03_PT002H.grib2 2026-05-06 06:05 1.2M
20260506T00Z_MSC_CAPS_WindSpeed_AGL-40m_RLatLon0.03_PT002H.grib2 2026-05-06 06:05 1.2M
20260506T00Z_MSC_CAPS_WindSpeed_AGL-80m_RLatLon0.03_PT002H.grib2 2026-05-06 06:05 1.1M
20260506T00Z_MSC_CAPS_WindSpeed_IsbL-0050_RLatLon0.03_PT002H.grib2 2026-05-06 06:05 1.0M
20260506T00Z_MSC_CAPS_WindSpeed_IsbL-0100_RLatLon0.03_PT002H.grib2 2026-05-06 06:05 1.3M
20260506T00Z_MSC_CAPS_WindSpeed_IsbL-0150_RLatLon0.03_PT002H.grib2 2026-05-06 06:05 1.0M
20260506T00Z_MSC_CAPS_WindSpeed_IsbL-0175_RLatLon0.03_PT002H.grib2 2026-05-06 06:05 1.1M
20260506T00Z_MSC_CAPS_WindSpeed_IsbL-0200_RLatLon0.03_PT002H.grib2 2026-05-06 06:05 1.1M
20260506T00Z_MSC_CAPS_WindSpeed_IsbL-0225_RLatLon0.03_PT002H.grib2 2026-05-06 06:05 957K
20260506T00Z_MSC_CAPS_WindSpeed_IsbL-0250_RLatLon0.03_PT002H.grib2 2026-05-06 06:05 1.0M
20260506T00Z_MSC_CAPS_WindSpeed_IsbL-0275_RLatLon0.03_PT002H.grib2 2026-05-06 06:05 1.0M
20260506T00Z_MSC_CAPS_WindSpeed_IsbL-0300_RLatLon0.03_PT002H.grib2 2026-05-06 06:05 1.0M
20260506T00Z_MSC_CAPS_WindSpeed_IsbL-0350_RLatLon0.03_PT002H.grib2 2026-05-06 06:05 1.0M
20260506T00Z_MSC_CAPS_WindSpeed_IsbL-0400_RLatLon0.03_PT002H.grib2 2026-05-06 06:05 1.0M
20260506T00Z_MSC_CAPS_WindSpeed_IsbL-0450_RLatLon0.03_PT002H.grib2 2026-05-06 06:05 1.0M
20260506T00Z_MSC_CAPS_WindSpeed_IsbL-0500_RLatLon0.03_PT002H.grib2 2026-05-06 06:05 1.0M
20260506T00Z_MSC_CAPS_WindSpeed_IsbL-0550_RLatLon0.03_PT002H.grib2 2026-05-06 06:05 1.4M
20260506T00Z_MSC_CAPS_WindSpeed_IsbL-0600_RLatLon0.03_PT002H.grib2 2026-05-06 06:05 1.4M
20260506T00Z_MSC_CAPS_WindSpeed_IsbL-0650_RLatLon0.03_PT002H.grib2 2026-05-06 06:05 1.4M
20260506T00Z_MSC_CAPS_WindSpeed_IsbL-0700_RLatLon0.03_PT002H.grib2 2026-05-06 06:05 1.4M
20260506T00Z_MSC_CAPS_WindSpeed_IsbL-0750_RLatLon0.03_PT002H.grib2 2026-05-06 06:05 1.5M
20260506T00Z_MSC_CAPS_WindSpeed_IsbL-0800_RLatLon0.03_PT002H.grib2 2026-05-06 06:05 1.6M
20260506T00Z_MSC_CAPS_WindSpeed_IsbL-0850_RLatLon0.03_PT002H.grib2 2026-05-06 06:05 1.7M
20260506T00Z_MSC_CAPS_WindSpeed_IsbL-0875_RLatLon0.03_PT002H.grib2 2026-05-06 06:05 1.9M
20260506T00Z_MSC_CAPS_WindSpeed_IsbL-0900_RLatLon0.03_PT002H.grib2 2026-05-06 06:05 1.9M
20260506T00Z_MSC_CAPS_WindSpeed_IsbL-0925_RLatLon0.03_PT002H.grib2 2026-05-06 06:05 1.8M
20260506T00Z_MSC_CAPS_WindSpeed_IsbL-0950_RLatLon0.03_PT002H.grib2 2026-05-06 06:05 2.0M
20260506T00Z_MSC_CAPS_WindSpeed_IsbL-0970_RLatLon0.03_PT002H.grib2 2026-05-06 06:05 2.1M
20260506T00Z_MSC_CAPS_WindSpeed_IsbL-0985_RLatLon0.03_PT002H.grib2 2026-05-06 06:05 2.0M
20260506T00Z_MSC_CAPS_WindSpeed_IsbL-1000_RLatLon0.03_PT002H.grib2 2026-05-06 06:05 2.1M
20260506T00Z_MSC_CAPS_WindSpeed_IsbL-1015_RLatLon0.03_PT002H.grib2 2026-05-06 06:05 2.1M
20260506T00Z_MSC_CAPS_WindU_AGL-10m_RLatLon0.03_PT002H.grib2 2026-05-06 06:05 2.0M
20260506T00Z_MSC_CAPS_WindU_AGL-120m_RLatLon0.03_PT002H.grib2 2026-05-06 06:05 899K
20260506T00Z_MSC_CAPS_WindU_AGL-40m_RLatLon0.03_PT002H.grib2 2026-05-06 06:05 1.2M
20260506T00Z_MSC_CAPS_WindU_AGL-80m_RLatLon0.03_PT002H.grib2 2026-05-06 06:05 1.2M
20260506T00Z_MSC_CAPS_WindU_IsbL-0050_RLatLon0.03_PT002H.grib2 2026-05-06 06:05 968K
20260506T00Z_MSC_CAPS_WindU_IsbL-0100_RLatLon0.03_PT002H.grib2 2026-05-06 06:05 960K
20260506T00Z_MSC_CAPS_WindU_IsbL-0150_RLatLon0.03_PT002H.grib2 2026-05-06 06:05 922K
20260506T00Z_MSC_CAPS_WindU_IsbL-0175_RLatLon0.03_PT002H.grib2 2026-05-06 06:05 730K
20260506T00Z_MSC_CAPS_WindU_IsbL-0200_RLatLon0.03_PT002H.grib2 2026-05-06 06:05 752K
20260506T00Z_MSC_CAPS_WindU_IsbL-0225_RLatLon0.03_PT002H.grib2 2026-05-06 06:05 901K
20260506T00Z_MSC_CAPS_WindU_IsbL-0250_RLatLon0.03_PT002H.grib2 2026-05-06 06:05 918K
20260506T00Z_MSC_CAPS_WindU_IsbL-0275_RLatLon0.03_PT002H.grib2 2026-05-06 06:05 924K
20260506T00Z_MSC_CAPS_WindU_IsbL-0300_RLatLon0.03_PT002H.grib2 2026-05-06 06:05 934K
20260506T00Z_MSC_CAPS_WindU_IsbL-0350_RLatLon0.03_PT002H.grib2 2026-05-06 06:05 954K
20260506T00Z_MSC_CAPS_WindU_IsbL-0400_RLatLon0.03_PT002H.grib2 2026-05-06 06:05 965K
20260506T00Z_MSC_CAPS_WindU_IsbL-0450_RLatLon0.03_PT002H.grib2 2026-05-06 06:05 1.0M
20260506T00Z_MSC_CAPS_WindU_IsbL-0500_RLatLon0.03_PT002H.grib2 2026-05-06 06:05 1.0M
20260506T00Z_MSC_CAPS_WindU_IsbL-0550_RLatLon0.03_PT002H.grib2 2026-05-06 06:05 1.0M
20260506T00Z_MSC_CAPS_WindU_IsbL-0600_RLatLon0.03_PT002H.grib2 2026-05-06 06:05 928K
20260506T00Z_MSC_CAPS_WindU_IsbL-0650_RLatLon0.03_PT002H.grib2 2026-05-06 06:05 960K
20260506T00Z_MSC_CAPS_WindU_IsbL-0700_RLatLon0.03_PT002H.grib2 2026-05-06 06:05 1.0M
20260506T00Z_MSC_CAPS_WindU_IsbL-0750_RLatLon0.03_PT002H.grib2 2026-05-06 06:05 1.1M
20260506T00Z_MSC_CAPS_WindU_IsbL-0800_RLatLon0.03_PT002H.grib2 2026-05-06 06:05 1.1M
20260506T00Z_MSC_CAPS_WindU_IsbL-0850_RLatLon0.03_PT002H.grib2 2026-05-06 06:05 1.2M
20260506T00Z_MSC_CAPS_WindU_IsbL-0875_RLatLon0.03_PT002H.grib2 2026-05-06 06:05 1.2M
20260506T00Z_MSC_CAPS_WindU_IsbL-0900_RLatLon0.03_PT002H.grib2 2026-05-06 06:05 1.3M
20260506T00Z_MSC_CAPS_WindU_IsbL-0925_RLatLon0.03_PT002H.grib2 2026-05-06 06:05 1.3M
20260506T00Z_MSC_CAPS_WindU_IsbL-0950_RLatLon0.03_PT002H.grib2 2026-05-06 06:05 1.3M
20260506T00Z_MSC_CAPS_WindU_IsbL-0970_RLatLon0.03_PT002H.grib2 2026-05-06 06:05 1.4M
20260506T00Z_MSC_CAPS_WindU_IsbL-0985_RLatLon0.03_PT002H.grib2 2026-05-06 06:05 1.8M
20260506T00Z_MSC_CAPS_WindU_IsbL-1000_RLatLon0.03_PT002H.grib2 2026-05-06 06:05 1.8M
20260506T00Z_MSC_CAPS_WindU_IsbL-1015_RLatLon0.03_PT002H.grib2 2026-05-06 06:05 2.0M
20260506T00Z_MSC_CAPS_WindV_AGL-10m_RLatLon0.03_PT002H.grib2 2026-05-06 06:05 1.9M
20260506T00Z_MSC_CAPS_WindV_AGL-120m_RLatLon0.03_PT002H.grib2 2026-05-06 06:05 900K
20260506T00Z_MSC_CAPS_WindV_AGL-40m_RLatLon0.03_PT002H.grib2 2026-05-06 06:05 1.2M
20260506T00Z_MSC_CAPS_WindV_AGL-80m_RLatLon0.03_PT002H.grib2 2026-05-06 06:05 906K
20260506T00Z_MSC_CAPS_WindV_IsbL-0050_RLatLon0.03_PT002H.grib2 2026-05-06 06:05 794K
20260506T00Z_MSC_CAPS_WindV_IsbL-0100_RLatLon0.03_PT002H.grib2 2026-05-06 06:05 788K
20260506T00Z_MSC_CAPS_WindV_IsbL-0150_RLatLon0.03_PT002H.grib2 2026-05-06 06:05 911K
20260506T00Z_MSC_CAPS_WindV_IsbL-0175_RLatLon0.03_PT002H.grib2 2026-05-06 06:05 721K
20260506T00Z_MSC_CAPS_WindV_IsbL-0200_RLatLon0.03_PT002H.grib2 2026-05-06 06:05 872K
20260506T00Z_MSC_CAPS_WindV_IsbL-0225_RLatLon0.03_PT002H.grib2 2026-05-06 06:05 890K
20260506T00Z_MSC_CAPS_WindV_IsbL-0250_RLatLon0.03_PT002H.grib2 2026-05-06 06:05 700K
20260506T00Z_MSC_CAPS_WindV_IsbL-0275_RLatLon0.03_PT002H.grib2 2026-05-06 06:05 709K
20260506T00Z_MSC_CAPS_WindV_IsbL-0300_RLatLon0.03_PT002H.grib2 2026-05-06 06:05 719K
20260506T00Z_MSC_CAPS_WindV_IsbL-0350_RLatLon0.03_PT002H.grib2 2026-05-06 06:05 734K
20260506T00Z_MSC_CAPS_WindV_IsbL-0400_RLatLon0.03_PT002H.grib2 2026-05-06 06:05 738K
20260506T00Z_MSC_CAPS_WindV_IsbL-0450_RLatLon0.03_PT002H.grib2 2026-05-06 06:05 970K
20260506T00Z_MSC_CAPS_WindV_IsbL-0500_RLatLon0.03_PT002H.grib2 2026-05-06 06:05 1.0M
20260506T00Z_MSC_CAPS_WindV_IsbL-0550_RLatLon0.03_PT002H.grib2 2026-05-06 06:05 1.0M
20260506T00Z_MSC_CAPS_WindV_IsbL-0600_RLatLon0.03_PT002H.grib2 2026-05-06 06:05 924K
20260506T00Z_MSC_CAPS_WindV_IsbL-0650_RLatLon0.03_PT002H.grib2 2026-05-06 06:05 1.2M
20260506T00Z_MSC_CAPS_WindV_IsbL-0700_RLatLon0.03_PT002H.grib2 2026-05-06 06:05 1.3M
20260506T00Z_MSC_CAPS_WindV_IsbL-0750_RLatLon0.03_PT002H.grib2 2026-05-06 06:05 1.3M
20260506T00Z_MSC_CAPS_WindV_IsbL-0800_RLatLon0.03_PT002H.grib2 2026-05-06 06:05 1.1M
20260506T00Z_MSC_CAPS_WindV_IsbL-0850_RLatLon0.03_PT002H.grib2 2026-05-06 06:05 1.2M
20260506T00Z_MSC_CAPS_WindV_IsbL-0875_RLatLon0.03_PT002H.grib2 2026-05-06 06:05 1.3M
20260506T00Z_MSC_CAPS_WindV_IsbL-0900_RLatLon0.03_PT002H.grib2 2026-05-06 06:05 1.3M
20260506T00Z_MSC_CAPS_WindV_IsbL-0925_RLatLon0.03_PT002H.grib2 2026-05-06 06:05 1.4M
20260506T00Z_MSC_CAPS_WindV_IsbL-0950_RLatLon0.03_PT002H.grib2 2026-05-06 06:05 1.4M
20260506T00Z_MSC_CAPS_WindV_IsbL-0970_RLatLon0.03_PT002H.grib2 2026-05-06 06:05 1.5M
20260506T00Z_MSC_CAPS_WindV_IsbL-0985_RLatLon0.03_PT002H.grib2 2026-05-06 06:05 1.4M
20260506T00Z_MSC_CAPS_WindV_IsbL-1000_RLatLon0.03_PT002H.grib2 2026-05-06 06:05 1.5M
20260506T00Z_MSC_CAPS_WindV_IsbL-1015_RLatLon0.03_PT002H.grib2 2026-05-06 06:05 1.9M